Hourly Data Report for October 21, 2016

All times are specified in Local Standard Time (LST). Add 1 hour to adjust for Daylight Saving Time where and when it is observed.

TORONTO INTL A
ONTARIO

43°40'36.000" N
79°37'50.000" W
173.40 m
6158731
71624
YYZ

Download Data

Hourly Data (October 2016)
Hourly Data Report for October 21, 2016
Temp Definition
°C
Dew Point Temp Definition
°C
Rel Hum Definition
%
Wind Dir Definition
10's deg

Wind Spd Definition
km/h
Visibility Definition
km
Stn Press Definition
kPa
Hmdx Definition


Wind Chill Definition


Weather Definition


TIME
00:00 Legend Double Dagger 11.3 9.9 91 36 18 24.1 99.32     Rain
01:00 Legend Double Dagger 11.3 10.1 92 35 19 24.1 99.30     Rain
02:00 Legend Double Dagger 11.2 10.1 93 35 19 16.1 99.32     Rain
03:00 Legend Double Dagger 10.9 10.0 94 36 17 24.1 99.25     Rain
04:00 Legend Double Dagger 10.8 9.9 94 1 18 24.1 99.16     Rain
05:00 Legend Double Dagger 10.9 9.8 93 36 16 24.1 99.14     LegendNANA
06:00 Legend Double Dagger 11.1 9.5 90 1 20 24.1 99.13     LegendNANA
07:00 Legend Double Dagger 10.8 9.6 92 36 18 19.3 99.15     Rain
08:00 Legend Double Dagger 10.3 9.1 92 35 22 14.5 99.21     Rain
09:00 Legend Double Dagger 9.5 8.4 93 35 25 16.1 99.18     Rain
10:00 Legend Double Dagger 8.4 7.0 91 35 29 24.1 99.16     Rain
11:00 Legend Double Dagger 8.1 6.2 88 35 25 24.1 99.18     Rain
12:00 Legend Double Dagger 7.9 5.2 83 35 30 24.1 99.20     Rain
13:00 Legend Double Dagger 7.7 4.8 82 34 34 24.1 99.17     Rain
14:00 Legend Double Dagger 7.4 4.9 84 35 32 24.1 99.16     Rain
15:00 Legend Double Dagger 7.3 4.6 83 35 31 24.1 99.09     Rain
16:00 Legend Double Dagger 7.6 4.2 79 35 28 24.1 99.15     Rain
17:00 Legend Double Dagger 7.8 3.7 75 35 25 24.1 99.18     LegendNANA
18:00 Legend Double Dagger 7.7 2.8 71 35 36 80.5 99.19     LegendNANA
19:00 Legend Double Dagger 7.4 2.5 71 35 27 24.1 99.21     Mostly Cloudy
20:00 Legend Double Dagger 7.1 1.8 69 35 26 24.1 99.20     LegendNANA
21:00 Legend Double Dagger 6.7 1.6 70 36 30 24.1 99.18     LegendNANA
22:00 Legend Double Dagger 6.5 1.6 71 35 28 24.1 99.14     Mostly Cloudy
23:00 Legend Double Dagger 5.8 1.0 71 36 26 24.1 99.10     LegendNANA

Notes on Data Quality.

Legend

  • E = Estimated
  • M = Missing
  • NA = Not Available
  • ‡ = Partner data that is not subject to review by the National Climate Archives
Date modified: